Regional Weather Roundup
Issued by NWS

Home | Current Version | Previous Version | Text Only | Print | Product List | Glossary On
Versions: 1 2 3 4 5 6 7 8 9 10 11 12 13 14 15 16 17 18 19 20 21 22 23 24 25 26 27 28 29 30 31 32 33 34 35 36 37 38 39 40 41 42 43 44 45 46 47 48 49 50
000
ASUS45 KSLC 261910
RWRUT

UTAH REGIONAL WEATHER ROUNDUP
NATIONAL WEATHER SERVICE SALT LAKE CITY UT
100 PM MDT SAT JUL 26 2014

UTZ001>011-023>025-262000-

NORTHERN UTAH

CITY           SKY/WX    TMP DP  RH WIND       PRES   REMARKS
HILL AFB       SUNNY     87  48  25 VRB3      30.19F
LOGAN          SUNNY     84  36  18 N7        30.19F
OGDEN          SUNNY     86  47  25 NW7       30.16F
PROVO AIRPORT  MOSUNNY   88  48  25 CALM      30.17F
SALT LAKE CITY MOSUNNY   88  47  24 NW5       30.14F
VERNAL         SUNNY     88  46  23 VRB5      30.17F
WENDOVER       SUNNY     88  30  12 E9        30.17F
HEBER CITY     SUNNY     88  43  20 N6        30.21F
WEST JORDAN    SUNNY     88  52  29 N13       30.18F

$$

UTZ012>022-026-027-262000-

SOUTHERN UTAH

CITY           SKY/WX    TMP DP  RH WIND       PRES   REMARKS
BRYCE CANYON   CLOUDY    75  48  38 CALM      30.42F
CEDAR CITY     PTSUNNY   85  50  29 SW9       30.25S
MILFORD        MOSUNNY   89  48  24 VRB7      30.17F
MOAB/CYNLANDS  SUNNY     90  47  22 SW9       30.12F
PRICE          PTSUNNY   85  43  22 VRB3      30.25F
ST GEORGE      CLEAR     88  57  35 E18       30.09R
KANAB            N/A     84  54  34 W10       30.27F

$$

REGIONAL REPORTS     COLORADO/ARIZONA

CITY           SKY/WX    TMP DP  RH WIND       PRES   REMARKS
CRAIG, CO      SUNNY     82  47  29 NW12G18   30.25F
GRAND JUNCTION MOSUNNY   90  49  24 VRB6      30.14F
RIFLE          SUNNY     90  44  20 NW7       30.19F
MONTROSE       PTSUNNY   89  50  26 N6        30.23F
CORTEZ         SUNNY     89  43  20 NW9       30.25F
PAGE, AZ       MOSUNNY   94  51  23 W9        30.15F HX  91
GRAND CANYON   SUNNY     83  48  29 CALM      30.35F
KINGMAN        SUNNY     92  58  31 SW14      30.13F HX  91
FLAGSTAFF      SUNNY     83  43  24 S10       30.37F

$$

REGIONAL REPORTS    NEVADA/IDAHO/WYOMING

CITY           SKY/WX    TMP DP  RH WIND       PRES   REMARKS
LAS VEGAS, NV  MOSUNNY  100  52  19 S6        29.94F HX  97
ELY            SUNNY     85  35  16 VRB3      30.27F
ELKO           SUNNY     87  25  10 CALM      30.19F
POCATELLO, ID  SUNNY     81  29  15 W3        30.22F
BURLEY         SUNNY     81  36  19 VRB6      30.19F
EVANSTON, WY   MOSUNNY   82  40  22 W10       30.34F
ROCK SPRINGS   SUNNY     84  31  14 SW13      30.30

$$



USA.gov is the U.S. government's official web portal to all federal, state and local government web resources and services.